Weather History for Meacham, OR

Change the Weather History Date:

Thursday, March 14, 2013

  Actual Average Record
Temperature  
Mean Temperature 44 °F -  
Max Temperature 60 °F 43 °F 60 °F (2013)
Min Temperature 28 °F 22 °F 8 °F (1997)
Degree Days  
Heating Degree Days 21    
Moisture  
Dew Point 31 °F    
Average Humidity 66    
Maximum Humidity 92    
Minimum Humidity 31    
Precipitation  
Precipitation 0.00 in - - ()
Sea Level Pressure  
Sea Level Pressure 30.13 in    
Wind  
Wind Speed 0 mph (North)    
Max Wind Speed 5 mph    
Max Gust Speed -    
Visibility 10 miles    
Events      
Averages and records for this station are not official NWS values.
T = Trace of Precipitation, MM = Missing Value Source: NWS Daily Summary

Daily Weather History Graph

Daily Weather History Graph

Search for Another Location

Airport:

Trip Planner

Search our weather history database for the weather conditions in past years. The results will help you decide how hot, cold, wet, or windy it might be!

Date:

Astronomy

Mar. 14, 2013 Rise Set
Actual Time 7:07 AM PDT 6:58 PM PDT
Civil Twilight 6:38 AM PDT 7:28 PM PDT
Nautical Twilight 6:03 AM PDT 8:02 PM PDT
Astronomical Twilight 5:28 AM PDT 8:37 PM PDT
Moon 8:13 AM PDT (3/14) 10:32 PM PDT (3/14)
Length of Visible Light 12h 50m
Length of Day
11h 51m
Waxing Crescent, 9% of the Moon is Illuminated
Mar 14
Waxing Crescent
Mar 19
First Quarter
Mar 27
Full
Apr 2
Last Quarter
Apr 10
New

Hourly Weather History & Observations

Time (PDT) Temp. Dew Point Humidity Pressure Visibility Wind Dir Wind Speed Gust Speed Precip Events Conditions
12:56 AM 30.9 °F 28.0 °F 89% 30.19 in 10.0 mi Calm Calm - N/A   Clear
1:56 AM 30.9 °F 27.0 °F 85% 30.17 in 10.0 mi Calm Calm - N/A   Clear
2:56 AM 28.9 °F 27.0 °F 92% 30.17 in 10.0 mi Calm Calm - N/A   Clear
3:56 AM 30.0 °F 27.0 °F 88% 30.14 in 10.0 mi Calm Calm - N/A   Clear
4:56 AM 32.0 °F 28.9 °F 88% 30.13 in 10.0 mi Calm Calm - N/A   Clear
5:56 AM 37.0 °F 30.9 °F 79% 30.12 in 10.0 mi Calm Calm - N/A   Partly Cloudy
6:56 AM 37.9 °F 32.0 °F 79% 30.13 in 10.0 mi Calm Calm - N/A   Scattered Clouds
7:56 AM 37.0 °F 32.0 °F 82% 30.13 in 10.0 mi Calm Calm - N/A   Partly Cloudy
8:56 AM 41.0 °F 33.1 °F 73% 30.13 in 10.0 mi Calm Calm - N/A   Clear
9:56 AM 48.9 °F 32.0 °F 52% 30.11 in 10.0 mi Calm Calm - N/A   Clear
10:56 AM 51.1 °F 30.9 °F 46% 30.12 in 10.0 mi Calm Calm - N/A   Clear
11:56 AM 53.1 °F 32.0 °F 45% 30.14 in 10.0 mi Calm Calm - N/A   Clear
12:56 PM 57.0 °F 30.9 °F 37% 30.12 in 10.0 mi Calm Calm - N/A   Clear
1:56 PM 60.1 °F 28.9 °F 31% 30.10 in 10.0 mi Variable 4.6 mph - N/A   Clear
2:56 PM 60.1 °F 30.0 °F 32% 30.09 in 10.0 mi Variable 3.5 mph - N/A   Clear
3:56 PM 59.0 °F 30.0 °F 33% 30.09 in 10.0 mi Calm Calm - N/A   Clear
4:56 PM 57.0 °F 33.1 °F 40% 30.09 in 10.0 mi Calm Calm - N/A   Clear
5:56 PM 54.0 °F 35.1 °F 49% 30.07 in 10.0 mi Calm Calm - N/A   Partly Cloudy
6:56 PM 46.9 °F 36.0 °F 66% 30.10 in 10.0 mi Calm Calm - N/A   Mostly Cloudy
7:56 PM 43.0 °F 35.1 °F 74% 30.13 in 10.0 mi Calm Calm - N/A   Overcast
8:56 PM 39.9 °F 33.1 °F 77% 30.14 in 10.0 mi Calm Calm - N/A   Overcast
9:56 PM 39.0 °F 32.0 °F 76% 30.14 in 10.0 mi Calm Calm - N/A   Mostly Cloudy
10:56 PM 37.9 °F 33.1 °F 83% 30.17 in 10.0 mi Calm Calm - N/A   Overcast
11:56 PM 37.0 °F 32.0 °F 82% 30.18 in 10.0 mi Calm Calm - N/A   Scattered Clouds